Wetterdaten: Mittwoch, 19.11.2014
Datum Zeit Temperatur Luftfeuchte Luftdruck Regen Wind Richtung Richtung Taupunkt Windchill Windben
19.11.2014 00:00 3,0 C 94 % 1012,2 hPa 0,0 l/m 0,0 km/h (0 Bft) SO 135 2,1 C 7,8 C 0,0 km/h (0 Bft)
19.11.2014 00:05 3,0 C 94 % 1012,2 hPa 0,0 l/m 0,0 km/h (0 Bft) SO 135 2,1 C 7,8 C 0,0 km/h (0 Bft)
19.11.2014 00:08 2,8 C 95 % 1012,2 hPa 0,0 l/m 0,0 km/h (0 Bft) SO 135 2,1 C 7,8 C 0,0 km/h (0 Bft)
19.11.2014 00:10 2,8 C 95 % 1012,2 hPa 0,0 l/m 0,0 km/h (0 Bft) SO 135 2,1 C 7,8 C 0,0 km/h (0 Bft)
19.11.2014 00:15 2,7 C 95 % 1012,3 hPa 0,0 l/m 0,0 km/h (0 Bft) SO 135 2,0 C 7,8 C 0,0 km/h (0 Bft)
19.11.2014 00:20 2,4 C 95 % 1012,3 hPa 0,0 l/m 0,0 km/h (0 Bft) SO 135 1,7 C 7,8 C 0,0 km/h (0 Bft)
19.11.2014 00:25 2,4 C 95 % 1012,3 hPa 0,0 l/m 0,0 km/h (0 Bft) SO 135 1,7 C 7,8 C 0,0 km/h (0 Bft)
19.11.2014 00:30 2,7 C 95 % 1012,3 hPa 0,0 l/m 0,0 km/h (0 Bft) SO 135 2,0 C 7,8 C 0,0 km/h (0 Bft)
19.11.2014 00:35 2,7 C 95 % 1012,4 hPa 0,0 l/m 0,0 km/h (0 Bft) SO 135 2,0 C 7,8 C 0,0 km/h (0 Bft)
19.11.2014 00:40 3,0 C 94 % 1012,4 hPa 0,0 l/m 0,0 km/h (0 Bft) SO 135 2,1 C 7,8 C 0,0 km/h (0 Bft)
19.11.2014 00:45 3,2 C 95 % 1012,4 hPa 0,0 l/m 0,0 km/h (0 Bft) SO 135 2,5 C 7,8 C 0,0 km/h (0 Bft)
19.11.2014 00:50 3,3 C 95 % 1012,4 hPa 0,0 l/m 0,0 km/h (0 Bft) SO 135 2,6 C 7,8 C 0,0 km/h (0 Bft)
19.11.2014 00:55 3,3 C 95 % 1012,4 hPa 0,0 l/m 0,0 km/h (0 Bft) SO 135 2,6 C 7,8 C 0,0 km/h (0 Bft)
19.11.2014 01:00 3,4 C 95 % 1012,4 hPa 0,0 l/m 0,0 km/h (0 Bft) SO 135 2,7 C 7,8 C 0,0 km/h (0 Bft)
19.11.2014 01:05 3,3 C 95 % 1012,4 hPa 0,0 l/m 0,0 km/h (0 Bft) SO 135 2,6 C 7,8 C 0,0 km/h (0 Bft)
19.11.2014 01:10 3,4 C 95 % 1012,4 hPa 0,0 l/m 0,0 km/h (0 Bft) SO 135 2,7 C 7,8 C 0,0 km/h (0 Bft)
19.11.2014 01:15 3,4 C 94 % 1012,6 hPa 0,0 l/m 0,0 km/h (0 Bft) SO 135 2,5 C 7,8 C 0,0 km/h (0 Bft)
19.11.2014 01:20 3,5 C 94 % 1012,6 hPa 0,0 l/m 0,0 km/h (0 Bft) SO 135 2,6 C 7,8 C 0,0 km/h (0 Bft)
19.11.2014 01:25 3,5 C 94 % 1012,6 hPa 0,0 l/m 0,0 km/h (0 Bft) SO 135 2,6 C 7,8 C 0,0 km/h (0 Bft)
19.11.2014 01:30 3,5 C 94 % 1012,6 hPa 0,0 l/m 0,0 km/h (0 Bft) SO 135 2,6 C 7,8 C 0,0 km/h (0 Bft)
19.11.2014 01:35 3,6 C 94 % 1012,8 hPa 0,0 l/m 0,0 km/h (0 Bft) SO 135 2,7 C 7,8 C 0,0 km/h (0 Bft)
19.11.2014 01:40 3,7 C 94 % 1012,8 hPa 0,0 l/m 0,0 km/h (0 Bft) SO 135 2,8 C 7,8 C 0,0 km/h (0 Bft)
19.11.2014 01:45 3,7 C 94 % 1012,8 hPa 0,0 l/m 0,0 km/h (0 Bft) SO 135 2,8 C 7,8 C 0,0 km/h (0 Bft)
19.11.2014 01:50 3,7 C 94 % 1012,8 hPa 0,0 l/m 0,0 km/h (0 Bft) SO 135 2,8 C 7,8 C 0,0 km/h (0 Bft)
19.11.2014 01:55 3,7 C 94 % 1012,6 hPa 0,0 l/m 0,0 km/h (0 Bft) SO 135 2,8 C 7,8 C 0,0 km/h (0 Bft)
19.11.2014 02:00 3,7 C 94 % 1012,6 hPa 0,0 l/m 0,0 km/h (0 Bft) SO 135 2,8 C 7,8 C 0,0 km/h (0 Bft)
19.11.2014 02:05 3,6 C 94 % 1012,6 hPa 0,0 l/m 0,0 km/h (0 Bft) SO 135 2,7 C 7,8 C 0,0 km/h (0 Bft)
19.11.2014 02:10 3,5 C 94 % 1012,6 hPa 0,0 l/m 0,0 km/h (0 Bft) SO 135 2,6 C 7,8 C 0,0 km/h (0 Bft)
19.11.2014 02:15 3,4 C 94 % 1012,9 hPa 0,0 l/m 0,0 km/h (0 Bft) SO 135 2,5 C 7,8 C 0,0 km/h (0 Bft)
19.11.2014 02:20 3,3 C 95 % 1012,9 hPa 0,0 l/m 0,0 km/h (0 Bft) SO 135 2,6 C 7,8 C 0,0 km/h (0 Bft)
19.11.2014 02:25 3,3 C 95 % 1012,9 hPa 0,0 l/m 0,0 km/h (0 Bft) SO 135 2,6 C 7,8 C 0,0 km/h (0 Bft)
19.11.2014 02:30 3,2 C 95 % 1012,9 hPa 0,0 l/m 0,0 km/h (0 Bft) SO 135 2,5 C 7,8 C 0,0 km/h (0 Bft)
19.11.2014 02:35 3,2 C 95 % 1012,9 hPa 0,0 l/m 0,0 km/h (0 Bft) SO 135 2,5 C 7,8 C 0,0 km/h (0 Bft)
19.11.2014 02:40 3,1 C 95 % 1012,9 hPa 0,0 l/m 0,0 km/h (0 Bft) SO 135 2,4 C 7,8 C 0,0 km/h (0 Bft)
19.11.2014 02:45 3,1 C 95 % 1012,9 hPa 0,0 l/m 0,0 km/h (0 Bft) SO 135 2,4 C 7,8 C 0,0 km/h (0 Bft)
19.11.2014 02:50 3,1 C 95 % 1012,9 hPa 0,0 l/m 0,0 km/h (0 Bft) SO 135 2,4 C 7,8 C 0,0 km/h (0 Bft)
19.11.2014 02:55 3,1 C 95 % 1012,8 hPa 0,0 l/m 0,0 km/h (0 Bft) SO 135 2,4 C 7,8 C 0,0 km/h (0 Bft)
19.11.2014 03:00 3,0 C 95 % 1012,8 hPa 0,0 l/m 0,0 km/h (0 Bft) SO 135 2,3 C 7,8 C 0,0 km/h (0 Bft)
19.11.2014 03:05 3,1 C 95 % 1012,8 hPa 0,0 l/m 0,0 km/h (0 Bft) SO 135 2,4 C 7,8 C 0,0 km/h (0 Bft)
19.11.2014 03:08 3,1 C 95 % 1012,8 hPa 0,0 l/m 0,0 km/h (0 Bft) SO 135 2,4 C 7,8 C 0,0 km/h (0 Bft)
19.11.2014 03:10 3,1 C 95 % 1012,8 hPa 0,0 l/m 0,0 km/h (0 Bft) SO 135 2,4 C 7,8 C 0,0 km/h (0 Bft)
19.11.2014 03:15 3,1 C 95 % 1013,2 hPa 0,0 l/m 0,0 km/h (0 Bft) SO 135 2,4 C 7,8 C 0,0 km/h (0 Bft)
19.11.2014 03:20 3,1 C 95 % 1013,2 hPa 0,0 l/m 0,0 km/h (0 Bft) SO 135 2,4 C 7,8 C 0,0 km/h (0 Bft)
19.11.2014 03:25 3,1 C 95 % 1013,2 hPa 0,0 l/m 0,0 km/h (0 Bft) SO 135 2,4 C 7,8 C 0,0 km/h (0 Bft)
19.11.2014 03:30 3,1 C 95 % 1013,2 hPa 0,0 l/m 0,0 km/h (0 Bft) SO 135 2,4 C 7,8 C 0,0 km/h (0 Bft)
19.11.2014 03:35 3,1 C 95 % 1013,0 hPa 0,0 l/m 0,0 km/h (0 Bft) SO 135 2,4 C 7,8 C 0,0 km/h (0 Bft)
19.11.2014 03:40 3,1 C 95 % 1013,0 hPa 0,0 l/m 0,0 km/h (0 Bft) SO 135 2,4 C 7,8 C 0,0 km/h (0 Bft)
19.11.2014 03:45 3,1 C 95 % 1013,0 hPa 0,0 l/m 0,0 km/h (0 Bft) SO 135 2,4 C 7,8 C 0,0 km/h (0 Bft)
19.11.2014 03:50 3,1 C 95 % 1013,0 hPa 0,0 l/m 0,0 km/h (0 Bft) SO 135 2,4 C 7,8 C 0,0 km/h (0 Bft)
19.11.2014 03:55 3,2 C 95 % 1012,8 hPa 0,0 l/m 0,0 km/h (0 Bft) SO 135 2,5 C 7,8 C 0,0 km/h (0 Bft)
19.11.2014 04:00 3,2 C 95 % 1012,8 hPa 0,0 l/m 0,0 km/h (0 Bft) SO 135 2,5 C 7,8 C 0,0 km/h (0 Bft)
19.11.2014 04:05 3,2 C 96 % 1012,8 hPa 0,0 l/m 0,0 km/h (0 Bft) SO 135 2,6 C 7,8 C 0,0 km/h (0 Bft)
19.11.2014 04:10 3,3 C 96 % 1012,8 hPa 0,0 l/m 0,0 km/h (0 Bft) SO 135 2,7 C 7,8 C 0,0 km/h (0 Bft)
19.11.2014 04:15 3,3 C 96 % 1013,2 hPa 0,0 l/m 0,0 km/h (0 Bft) SO 135 2,7 C 7,8 C 0,0 km/h (0 Bft)
19.11.2014 04:20 3,3 C 96 % 1013,2 hPa 0,0 l/m 0,0 km/h (0 Bft) SO 135 2,7 C 7,8 C 0,0 km/h (0 Bft)
19.11.2014 04:25 3,3 C 96 % 1013,2 hPa 0,0 l/m 0,0 km/h (0 Bft) SO 135 2,7 C 7,8 C 0,0 km/h (0 Bft)
19.11.2014 04:30 3,4 C 96 % 1013,2 hPa 0,0 l/m 0,0 km/h (0 Bft) SO 135 2,8 C 7,8 C 0,0 km/h (0 Bft)
19.11.2014 04:35 3,3 C 96 % 1012,6 hPa 0,0 l/m 0,0 km/h (0 Bft) SO 135 2,7 C 7,8 C 0,0 km/h (0 Bft)
19.11.2014 04:40 3,3 C 96 % 1012,6 hPa 0,0 l/m 0,0 km/h (0 Bft) SO 135 2,7 C 7,8 C 0,0 km/h (0 Bft)
19.11.2014 04:45 3,4 C 96 % 1012,6 hPa 0,0 l/m 0,0 km/h (0 Bft) SO 135 2,8 C 7,8 C 0,0 km/h (0 Bft)
19.11.2014 04:50 3,3 C 96 % 1012,6 hPa 0,0 l/m 0,0 km/h (0 Bft) SO 135 2,7 C 7,8 C 0,0 km/h (0 Bft)
19.11.2014 04:55 3,3 C 96 % 1012,6 hPa 0,0 l/m 0,0 km/h (0 Bft) SO 135 2,7 C 7,8 C 0,0 km/h (0 Bft)
19.11.2014 05:00 3,3 C 96 % 1012,4 hPa 0,0 l/m 0,0 km/h (0 Bft) SO 135 2,7 C 7,8 C 0,0 km/h (0 Bft)
19.11.2014 05:05 3,3 C 96 % 1012,4 hPa 0,0 l/m 0,0 km/h (0 Bft) SO 135 2,7 C 7,8 C 0,0 km/h (0 Bft)
19.11.2014 05:10 3,4 C 96 % 1012,4 hPa 0,0 l/m 0,0 km/h (0 Bft) SO 135 2,8 C 7,8 C 0,0 km/h (0 Bft)
19.11.2014 05:15 3,3 C 96 % 1012,4 hPa 0,0 l/m 0,0 km/h (0 Bft) SO 135 2,7 C 7,8 C 0,0 km/h (0 Bft)
19.11.2014 05:20 3,3 C 96 % 1012,5 hPa 0,0 l/m 0,0 km/h (0 Bft) SO 135 2,7 C 7,8 C 0,0 km/h (0 Bft)
19.11.2014 05:25 3,3 C 96 % 1012,5 hPa 0,0 l/m 0,0 km/h (0 Bft) SO 135 2,7 C 7,8 C 0,0 km/h (0 Bft)
19.11.2014 05:30 3,3 C 96 % 1012,5 hPa 0,0 l/m 0,0 km/h (0 Bft) SO 135 2,7 C 7,8 C 0,0 km/h (0 Bft)
19.11.2014 05:35 3,3 C 96 % 1012,5 hPa 0,0 l/m 0,0 km/h (0 Bft) SO 135 2,7 C 7,8 C 0,0 km/h (0 Bft)
19.11.2014 05:40 3,3 C 96 % 1012,6 hPa 0,0 l/m 0,0 km/h (0 Bft) SO 135 2,7 C 7,8 C 0,0 km/h (0 Bft)
19.11.2014 05:45 3,3 C 96 % 1012,6 hPa 0,0 l/m 0,0 km/h (0 Bft) SO 135 2,7 C 7,8 C 0,0 km/h (0 Bft)
19.11.2014 05:50 3,4 C 96 % 1012,6 hPa 0,0 l/m 0,0 km/h (0 Bft) SO 135 2,8 C 7,8 C 0,0 km/h (0 Bft)
19.11.2014 05:55 3,3 C 96 % 1012,6 hPa 0,0 l/m 0,0 km/h (0 Bft) SO 135 2,7 C 7,8 C 0,0 km/h (0 Bft)
19.11.2014 06:00 3,2 C 96 % 1012,8 hPa 0,0 l/m 0,0 km/h (0 Bft) SO 135 2,6 C 7,8 C 0,0 km/h (0 Bft)
19.11.2014 06:05 3,2 C 95 % 1012,8 hPa 0,0 l/m 0,0 km/h (0 Bft) SO 135 2,5 C 7,8 C 0,0 km/h (0 Bft)
19.11.2014 06:08 3,3 C 95 % 1012,8 hPa 0,0 l/m 0,0 km/h (0 Bft) SO 135 2,6 C 7,8 C 0,0 km/h (0 Bft)
19.11.2014 06:10 3,3 C 95 % 1012,8 hPa 0,0 l/m 0,0 km/h (0 Bft) SO 135 2,6 C 7,8 C 0,0 km/h (0 Bft)
19.11.2014 06:15 3,3 C 95 % 1013,1 hPa 0,0 l/m 0,0 km/h (0 Bft) SO 135 2,6 C 7,8 C 0,0 km/h (0 Bft)
19.11.2014 06:20 3,4 C 95 % 1013,1 hPa 0,0 l/m 0,0 km/h (0 Bft) SO 135 2,7 C 7,8 C 0,0 km/h (0 Bft)
19.11.2014 06:25 3,4 C 95 % 1013,1 hPa 0,0 l/m 0,0 km/h (0 Bft) SO 135 2,7 C 7,8 C 0,0 km/h (0 Bft)
19.11.2014 06:30 3,3 C 95 % 1013,1 hPa 0,0 l/m 0,0 km/h (0 Bft) SO 135 2,6 C 7,8 C 0,0 km/h (0 Bft)
19.11.2014 06:35 3,3 C 95 % 1013,4 hPa 0,0 l/m 0,0 km/h (0 Bft) SO 135 2,6 C 7,8 C 0,0 km/h (0 Bft)
19.11.2014 06:40 3,3 C 95 % 1013,4 hPa 0,0 l/m 0,0 km/h (0 Bft) SO 135 2,6 C 7,8 C 0,0 km/h (0 Bft)
19.11.2014 06:45 3,3 C 95 % 1013,4 hPa 0,0 l/m 0,0 km/h (0 Bft) SO 135 2,6 C 7,8 C 0,0 km/h (0 Bft)
19.11.2014 06:50 3,3 C 95 % 1013,4 hPa 0,0 l/m 0,0 km/h (0 Bft) SO 135 2,6 C 7,8 C 0,0 km/h (0 Bft)
19.11.2014 06:55 3,3 C 95 % 1013,7 hPa 0,0 l/m 0,0 km/h (0 Bft) SO 135 2,6 C 7,8 C 0,0 km/h (0 Bft)
19.11.2014 07:00 3,3 C 95 % 1013,7 hPa 0,0 l/m 0,0 km/h (0 Bft) SO 135 2,6 C 7,8 C 0,0 km/h (0 Bft)
19.11.2014 07:05 3,3 C 95 % 1013,7 hPa 0,0 l/m 0,0 km/h (0 Bft) SO 135 2,6 C 7,8 C 0,0 km/h (0 Bft)
19.11.2014 07:10 3,4 C 95 % 1013,7 hPa 0,0 l/m 0,0 km/h (0 Bft) SO 135 2,7 C 7,8 C 0,0 km/h (0 Bft)
19.11.2014 07:15 3,4 C 95 % 1013,9 hPa 0,0 l/m 0,0 km/h (0 Bft) SO 135 2,7 C 7,8 C 0,0 km/h (0 Bft)
19.11.2014 07:20 3,5 C 95 % 1013,9 hPa 0,0 l/m 0,0 km/h (0 Bft) SO 135 2,8 C 7,8 C 0,0 km/h (0 Bft)
19.11.2014 07:25 3,5 C 95 % 1013,9 hPa 0,0 l/m 0,0 km/h (0 Bft) SO 135 2,8 C 7,8 C 0,0 km/h (0 Bft)
19.11.2014 07:30 3,5 C 95 % 1013,9 hPa 0,0 l/m 0,0 km/h (0 Bft) SO 135 2,8 C 7,8 C 0,0 km/h (0 Bft)
19.11.2014 07:35 3,5 C 95 % 1013,9 hPa 0,0 l/m 0,0 km/h (0 Bft) SO 135 2,8 C 7,8 C 0,0 km/h (0 Bft)
19.11.2014 07:40 3,5 C 95 % 1014,7 hPa 0,0 l/m 0,0 km/h (0 Bft) SO 135 2,8 C 7,8 C 0,0 km/h (0 Bft)
19.11.2014 07:45 3,4 C 95 % 1014,7 hPa 0,0 l/m 0,0 km/h (0 Bft) SO 135 2,7 C 7,8 C 0,0 km/h (0 Bft)
19.11.2014 07:50 3,4 C 95 % 1014,7 hPa 0,0 l/m 0,0 km/h (0 Bft) SO 135 2,7 C 7,8 C 0,0 km/h (0 Bft)
19.11.2014 07:55 3,4 C 95 % 1014,7 hPa 0,0 l/m 0,0 km/h (0 Bft) SO 135 2,7 C 7,8 C 0,0 km/h (0 Bft)
19.11.2014 08:00 3,5 C 95 % 1015,2 hPa 0,0 l/m 0,0 km/h (0 Bft) SO 135 2,8 C 7,8 C 0,0 km/h (0 Bft)
19.11.2014 08:05 3,5 C 95 % 1015,2 hPa 0,0 l/m 0,0 km/h (0 Bft) SO 135 2,8 C 7,8 C 0,0 km/h (0 Bft)
19.11.2014 08:10 3,5 C 95 % 1015,2 hPa 0,0 l/m 0,0 km/h (0 Bft) SO 135 2,8 C 7,8 C 0,0 km/h (0 Bft)
19.11.2014 08:15 3,5 C 95 % 1015,2 hPa 0,0 l/m 0,0 km/h (0 Bft) SO 135 2,8 C 7,8 C 0,0 km/h (0 Bft)
19.11.2014 08:20 3,5 C 95 % 1015,4 hPa 0,0 l/m 0,0 km/h (0 Bft) SO 135 2,8 C 7,8 C 0,0 km/h (0 Bft)
19.11.2014 08:25 3,5 C 95 % 1015,4 hPa 0,0 l/m 0,0 km/h (0 Bft) SO 135 2,8 C 7,8 C 0,0 km/h (0 Bft)
19.11.2014 08:30 3,5 C 95 % 1015,4 hPa 0,0 l/m 0,0 km/h (0 Bft) SO 135 2,8 C 7,8 C 0,0 km/h (0 Bft)
19.11.2014 08:35 3,5 C 95 % 1015,4 hPa 0,0 l/m 0,0 km/h (0 Bft) SO 135 2,8 C 7,8 C 0,0 km/h (0 Bft)
19.11.2014 08:40 3,5 C 95 % 1016,4 hPa 0,0 l/m 0,0 km/h (0 Bft) SO 135 2,8 C 7,8 C 0,0 km/h (0 Bft)
19.11.2014 08:45 3,5 C 95 % 1016,4 hPa 0,0 l/m 0,0 km/h (0 Bft) SO 135 2,8 C 7,8 C 0,0 km/h (0 Bft)
19.11.2014 08:50 3,5 C 95 % 1016,4 hPa 0,0 l/m 0,0 km/h (0 Bft) SO 135 2,8 C 7,8 C 0,0 km/h (0 Bft)
19.11.2014 08:55 3,6 C 95 % 1016,4 hPa 0,0 l/m 0,0 km/h (0 Bft) SO 135 2,9 C 7,8 C 0,0 km/h (0 Bft)
19.11.2014 09:00 3,6 C 95 % 1017,2 hPa 0,0 l/m 0,0 km/h (0 Bft) SO 135 2,9 C 7,8 C 0,0 km/h (0 Bft)
19.11.2014 09:05 3,6 C 95 % 1017,2 hPa 0,0 l/m 0,0 km/h (0 Bft) SO 135 2,9 C 7,8 C 0,0 km/h (0 Bft)
19.11.2014 09:10 3,8 C 95 % 1017,2 hPa 0,0 l/m 0,0 km/h (0 Bft) SO 135 3,1 C 7,8 C 0,0 km/h (0 Bft)
19.11.2014 09:15 3,8 C 96 % 1017,6 hPa 0,0 l/m 0,0 km/h (0 Bft) SO 135 3,2 C 7,8 C 0,0 km/h (0 Bft)
19.11.2014 09:20 4,0 C 95 % 1017,6 hPa 0,0 l/m 0,0 km/h (0 Bft) SO 135 3,3 C 7,8 C 0,0 km/h (0 Bft)
19.11.2014 09:25 4,0 C 95 % 1017,6 hPa 0,0 l/m 0,0 km/h (0 Bft) SO 135 3,3 C 7,8 C 0,0 km/h (0 Bft)
19.11.2014 09:30 4,0 C 95 % 1017,6 hPa 0,0 l/m 0,0 km/h (0 Bft) SO 135 3,3 C 7,8 C 0,0 km/h (0 Bft)
19.11.2014 09:35 4,1 C 95 % 1018,0 hPa 0,0 l/m 0,0 km/h (0 Bft) SO 135 3,4 C 7,8 C 0,0 km/h (0 Bft)
19.11.2014 09:40 4,3 C 95 % 1018,0 hPa 0,0 l/m 0,0 km/h (0 Bft) SO 135 3,6 C 7,8 C 0,0 km/h (0 Bft)
19.11.2014 09:45 4,2 C 95 % 1018,0 hPa 0,0 l/m 0,0 km/h (0 Bft) SO 135 3,5 C 7,8 C 0,0 km/h (0 Bft)
19.11.2014 09:50 4,2 C 95 % 1018,0 hPa 0,0 l/m 0,0 km/h (0 Bft) SO 135 3,5 C 7,8 C 0,0 km/h (0 Bft)
19.11.2014 09:55 4,3 C 95 % 1018,2 hPa 0,0 l/m 0,0 km/h (0 Bft) SO 135 3,6 C 7,8 C 0,0 km/h (0 Bft)
19.11.2014 10:00 4,4 C 95 % 1018,2 hPa 0,0 l/m 0,0 km/h (0 Bft) SO 135 3,7 C 7,8 C 0,0 km/h (0 Bft)
19.11.2014 10:05 4,4 C 95 % 1018,2 hPa 0,0 l/m 0,0 km/h (0 Bft) SO 135 3,7 C 7,8 C 0,0 km/h (0 Bft)
19.11.2014 10:10 4,5 C 95 % 1018,2 hPa 0,0 l/m 0,0 km/h (0 Bft) SO 135 3,8 C 7,8 C 0,0 km/h (0 Bft)
19.11.2014 10:15 4,5 C 95 % 1018,6 hPa 0,0 l/m 0,0 km/h (0 Bft) SO 135 3,8 C 7,8 C 0,0 km/h (0 Bft)
19.11.2014 10:20 4,5 C 95 % 1018,6 hPa 0,0 l/m 0,0 km/h (0 Bft) SO 135 3,8 C 7,8 C 0,0 km/h (0 Bft)
19.11.2014 10:25 4,6 C 95 % 1018,6 hPa 0,0 l/m 0,0 km/h (0 Bft) SO 135 3,9 C 7,8 C 0,0 km/h (0 Bft)
19.11.2014 10:30 4,8 C 95 % 1018,6 hPa 0,0 l/m 0,0 km/h (0 Bft) SO 135 4,1 C 7,8 C 0,0 km/h (0 Bft)
19.11.2014 10:35 4,8 C 95 % 1019,1 hPa 0,0 l/m 0,0 km/h (0 Bft) SO 135 4,1 C 7,8 C 0,0 km/h (0 Bft)
19.11.2014 10:40 4,8 C 95 % 1019,1 hPa 0,0 l/m 0,0 km/h (0 Bft) SO 135 4,1 C 7,8 C 0,0 km/h (0 Bft)
19.11.2014 10:45 4,8 C 95 % 1019,1 hPa 0,0 l/m 0,0 km/h (0 Bft) SO 135 4,1 C 7,8 C 0,0 km/h (0 Bft)
19.11.2014 10:50 4,8 C 94 % 1019,1 hPa 0,0 l/m 0,0 km/h (0 Bft) SO 135 3,9 C 7,8 C 0,0 km/h (0 Bft)
19.11.2014 10:55 4,9 C 94 % 1019,1 hPa 0,0 l/m 0,0 km/h (0 Bft) SO 135 4,0 C 7,8 C 0,0 km/h (0 Bft)
19.11.2014 11:00 5,0 C 94 % 1019,3 hPa 0,0 l/m 0,0 km/h (0 Bft) SO 135 4,1 C 7,8 C 0,0 km/h (0 Bft)
19.11.2014 11:05 5,1 C 94 % 1019,3 hPa 0,0 l/m 0,0 km/h (0 Bft) SO 135 4,2 C 7,8 C 0,0 km/h (0 Bft)
19.11.2014 11:10 5,2 C 94 % 1019,3 hPa 0,0 l/m 0,0 km/h (0 Bft) SO 135 4,3 C 7,8 C 0,0 km/h (0 Bft)
19.11.2014 11:15 5,2 C 94 % 1019,3 hPa 0,0 l/m 0,0 km/h (0 Bft) SO 135 4,3 C 7,8 C 0,0 km/h (0 Bft)
19.11.2014 11:20 5,2 C 94 % 1019,7 hPa 0,0 l/m 0,0 km/h (0 Bft) SO 135 4,3 C 7,8 C 0,0 km/h (0 Bft)
19.11.2014 11:25 5,2 C 93 % 1019,7 hPa 0,0 l/m 0,0 km/h (0 Bft) SO 135 4,2 C 7,8 C 0,0 km/h (0 Bft)
19.11.2014 11:30 5,3 C 93 % 1019,7 hPa 0,0 l/m 0,0 km/h (0 Bft) SO 135 4,3 C 7,8 C 0,0 km/h (0 Bft)
19.11.2014 11:35 5,3 C 93 % 1019,7 hPa 0,0 l/m 0,0 km/h (0 Bft) SO 135 4,3 C 7,8 C 0,0 km/h (0 Bft)
19.11.2014 11:40 5,2 C 93 % 1019,7 hPa 0,0 l/m 0,0 km/h (0 Bft) SO 135 4,2 C 7,8 C 0,0 km/h (0 Bft)
19.11.2014 11:45 5,3 C 92 % 1019,7 hPa 0,0 l/m 0,0 km/h (0 Bft) SO 135 4,1 C 7,8 C 0,0 km/h (0 Bft)
19.11.2014 11:50 5,3 C 92 % 1019,7 hPa 0,0 l/m 0,0 km/h (0 Bft) SO 135 4,1 C 7,8 C 0,0 km/h (0 Bft)
19.11.2014 11:55 5,2 C 92 % 1019,7 hPa 0,0 l/m 0,0 km/h (0 Bft) SO 135 4,0 C 7,8 C 0,0 km/h (0 Bft)
19.11.2014 12:00 5,2 C 92 % 1019,8 hPa 0,0 l/m 0,0 km/h (0 Bft) SO 135 4,0 C 7,8 C 0,0 km/h (0 Bft)
19.11.2014 12:05 5,3 C 92 % 1019,8 hPa 0,0 l/m 0,0 km/h (0 Bft) SO 135 4,1 C 7,8 C 0,0 km/h (0 Bft)
19.11.2014 12:10 5,0 C 91 % 1019,8 hPa 0,0 l/m 0,0 km/h (0 Bft) SO 135 3,7 C 7,8 C 0,0 km/h (0 Bft)
19.11.2014 12:15 5,1 C 91 % 1019,9 hPa 0,0 l/m 0,0 km/h (0 Bft) SO 135 3,8 C 7,8 C 0,0 km/h (0 Bft)
19.11.2014 12:20 5,3 C 91 % 1019,9 hPa 0,0 l/m 0,0 km/h (0 Bft) SO 135 4,0 C 7,8 C 0,0 km/h (0 Bft)
19.11.2014 12:25 5,3 C 91 % 1019,9 hPa 0,0 l/m 0,0 km/h (0 Bft) SO 135 4,0 C 7,8 C 0,0 km/h (0 Bft)
19.11.2014 12:30 5,3 C 91 % 1019,9 hPa 0,0 l/m 0,0 km/h (0 Bft) SO 135 4,0 C 7,8 C 0,0 km/h (0 Bft)
19.11.2014 12:35 5,4 C 91 % 1019,8 hPa 0,0 l/m 0,0 km/h (0 Bft) SO 135 4,1 C 7,8 C 0,0 km/h (0 Bft)
19.11.2014 12:40 5,4 C 91 % 1019,8 hPa 0,0 l/m 0,0 km/h (0 Bft) SO 135 4,1 C 7,8 C 0,0 km/h (0 Bft)
19.11.2014 12:45 5,5 C 91 % 1019,8 hPa 0,0 l/m 0,0 km/h (0 Bft) SO 135 4,2 C 7,8 C 0,0 km/h (0 Bft)
19.11.2014 12:50 5,5 C 91 % 1019,8 hPa 0,0 l/m 0,0 km/h (0 Bft) SO 135 4,2 C 7,8 C 0,0 km/h (0 Bft)
19.11.2014 12:55 5,5 C 91 % 1020,1 hPa 0,0 l/m 0,0 km/h (0 Bft) SO 135 4,2 C 7,8 C 0,0 km/h (0 Bft)
19.11.2014 13:00 5,6 C 91 % 1020,1 hPa 0,0 l/m 0,0 km/h (0 Bft) SO 135 4,2 C 7,8 C 0,0 km/h (0 Bft)
19.11.2014 13:05 5,6 C 91 % 1020,1 hPa 0,0 l/m 0,0 km/h (0 Bft) SO 135 4,2 C 7,8 C 0,0 km/h (0 Bft)
19.11.2014 13:10 5,4 C 91 % 1020,1 hPa 0,0 l/m 0,0 km/h (0 Bft) SO 135 4,1 C 7,8 C 0,0 km/h (0 Bft)
19.11.2014 13:15 5,5 C 91 % 1020,2 hPa 0,0 l/m 0,0 km/h (0 Bft) SO 135 4,2 C 7,8 C 0,0 km/h (0 Bft)
19.11.2014 13:20 5,5 C 92 % 1020,2 hPa 0,0 l/m 0,0 km/h (0 Bft) SO 135 4,3 C 7,8 C 0,0 km/h (0 Bft)
19.11.2014 13:25 5,6 C 92 % 1020,2 hPa 0,0 l/m 0,0 km/h (0 Bft) SO 135 4,4 C 7,8 C 0,0 km/h (0 Bft)
19.11.2014 13:30 5,7 C 92 % 1020,2 hPa 0,0 l/m 0,0 km/h (0 Bft) SO 135 4,5 C 7,8 C 0,0 km/h (0 Bft)
19.11.2014 13:35 5,7 C 92 % 1020,2 hPa 0,0 l/m 0,0 km/h (0 Bft) SO 135 4,5 C 7,8 C 0,0 km/h (0 Bft)
19.11.2014 13:40 5,7 C 92 % 1020,3 hPa 0,0 l/m 0,0 km/h (0 Bft) SO 135 4,5 C 7,8 C 0,0 km/h (0 Bft)
19.11.2014 13:45 5,7 C 92 % 1020,3 hPa 0,0 l/m 0,0 km/h (0 Bft) SO 135 4,5 C 7,8 C 0,0 km/h (0 Bft)
19.11.2014 13:50 5,7 C 92 % 1020,3 hPa 0,0 l/m 0,0 km/h (0 Bft) SO 135 4,5 C 7,8 C 0,0 km/h (0 Bft)
19.11.2014 13:55 5,8 C 92 % 1020,3 hPa 0,0 l/m 0,0 km/h (0 Bft) SO 135 4,6 C 7,8 C 0,0 km/h (0 Bft)
19.11.2014 14:00 5,9 C 92 % 1020,6 hPa 0,0 l/m 0,0 km/h (0 Bft) SO 135 4,7 C 7,8 C 0,0 km/h (0 Bft)
19.11.2014 14:05 6,1 C 91 % 1020,6 hPa 0,0 l/m 0,0 km/h (0 Bft) SO 135 4,7 C 7,8 C 0,0 km/h (0 Bft)
19.11.2014 14:10 6,1 C 90 % 1020,6 hPa 0,0 l/m 0,0 km/h (0 Bft) SO 135 4,6 C 7,8 C 0,0 km/h (0 Bft)
19.11.2014 14:15 6,0 C 90 % 1020,6 hPa 0,0 l/m 0,0 km/h (0 Bft) SO 135 4,5 C 7,8 C 0,0 km/h (0 Bft)
19.11.2014 14:20 5,9 C 92 % 1020,7 hPa 0,0 l/m 0,0 km/h (0 Bft) SO 135 4,7 C 7,8 C 0,0 km/h (0 Bft)
19.11.2014 14:25 5,8 C 92 % 1020,7 hPa 0,0 l/m 0,0 km/h (0 Bft) SO 135 4,6 C 7,8 C 0,0 km/h (0 Bft)
19.11.2014 14:30 5,8 C 91 % 1020,7 hPa 0,0 l/m 0,0 km/h (0 Bft) SO 135 4,4 C 7,8 C 0,0 km/h (0 Bft)
19.11.2014 14:35 5,7 C 91 % 1020,7 hPa 0,0 l/m 0,0 km/h (0 Bft) SO 135 4,3 C 7,8 C 0,0 km/h (0 Bft)
19.11.2014 14:40 5,7 C 91 % 1020,9 hPa 0,0 l/m 0,0 km/h (0 Bft) SO 135 4,3 C 7,8 C 0,0 km/h (0 Bft)
19.11.2014 14:45 5,7 C 91 % 1020,9 hPa 0,0 l/m 0,0 km/h (0 Bft) SO 135 4,3 C 7,8 C 0,0 km/h (0 Bft)
19.11.2014 14:50 5,6 C 91 % 1020,9 hPa 0,0 l/m 0,0 km/h (0 Bft) SO 135 4,2 C 7,8 C 0,0 km/h (0 Bft)
19.11.2014 14:55 5,7 C 91 % 1020,9 hPa 0,0 l/m 0,0 km/h (0 Bft) SO 135 4,3 C 7,8 C 0,0 km/h (0 Bft)
19.11.2014 15:00 5,7 C 91 % 1021,0 hPa 0,0 l/m 0,0 km/h (0 Bft) SO 135 4,3 C 7,8 C 0,0 km/h (0 Bft)
19.11.2014 15:03 5,7 C 91 % 1021,0 hPa 0,0 l/m 0,0 km/h (0 Bft) SO 135 4,3 C 7,8 C 0,0 km/h (0 Bft)
19.11.2014 15:05 5,7 C 91 % 1021,0 hPa 0,0 l/m 0,0 km/h (0 Bft) SO 135 4,3 C 7,8 C 0,0 km/h (0 Bft)
19.11.2014 15:10 5,7 C 91 % 1021,0 hPa 0,0 l/m 0,0 km/h (0 Bft) SO 135 4,3 C 7,8 C 0,0 km/h (0 Bft)
19.11.2014 15:15 5,6 C 91 % 1021,3 hPa 0,0 l/m 0,0 km/h (0 Bft) SO 135 4,2 C 7,8 C 0,0 km/h (0 Bft)
19.11.2014 15:20 5,6 C 91 % 1021,3 hPa 0,0 l/m 0,0 km/h (0 Bft) SO 135 4,2 C 7,8 C 0,0 km/h (0 Bft)
19.11.2014 15:25 5,5 C 91 % 1021,3 hPa 0,0 l/m 0,0 km/h (0 Bft) SO 135 4,2 C 7,8 C 0,0 km/h (0 Bft)
19.11.2014 15:30 5,4 C 91 % 1021,3 hPa 0,0 l/m 0,0 km/h (0 Bft) SO 135 4,1 C 7,8 C 0,0 km/h (0 Bft)
19.11.2014 15:35 5,4 C 92 % 1021,5 hPa 0,0 l/m 0,0 km/h (0 Bft) SO 135 4,2 C 7,8 C 0,0 km/h (0 Bft)
19.11.2014 15:40 5,3 C 92 % 1021,5 hPa 0,0 l/m 0,0 km/h (0 Bft) SO 135 4,1 C 7,8 C 0,0 km/h (0 Bft)
19.11.2014 15:45 5,2 C 92 % 1021,5 hPa 0,0 l/m 0,0 km/h (0 Bft) SO 135 4,0 C 7,8 C 0,0 km/h (0 Bft)
19.11.2014 15:50 5,2 C 92 % 1021,5 hPa 0,0 l/m 0,0 km/h (0 Bft) SO 135 4,0 C 7,8 C 0,0 km/h (0 Bft)
19.11.2014 15:55 5,1 C 92 % 1021,7 hPa 0,0 l/m 0,0 km/h (0 Bft) SO 135 3,9 C 7,8 C 0,0 km/h (0 Bft)
19.11.2014 16:00 5,0 C 92 % 1021,7 hPa 0,0 l/m 0,0 km/h (0 Bft) SO 135 3,8 C 7,8 C 0,0 km/h (0 Bft)
19.11.2014 16:05 4,9 C 92 % 1021,7 hPa 0,0 l/m 0,0 km/h (0 Bft) SO 135 3,7 C 7,8 C 0,0 km/h (0 Bft)
19.11.2014 16:10 4,8 C 92 % 1021,7 hPa 0,0 l/m 0,0 km/h (0 Bft) SO 135 3,6 C 7,8 C 0,0 km/h (0 Bft)
19.11.2014 16:15 4,6 C 92 % 1021,6 hPa 0,0 l/m 0,0 km/h (0 Bft) SO 135 3,4 C 7,8 C 0,0 km/h (0 Bft)
19.11.2014 16:20 4,5 C 93 % 1021,6 hPa 0,0 l/m 0,0 km/h (0 Bft) SO 135 3,5 C 7,8 C 0,0 km/h (0 Bft)
19.11.2014 16:25 4,4 C 93 % 1021,6 hPa 0,0 l/m 0,0 km/h (0 Bft) SO 135 3,4 C 7,8 C 0,0 km/h (0 Bft)
19.11.2014 16:30 4,4 C 93 % 1021,6 hPa 0,0 l/m 0,0 km/h (0 Bft) SO 135 3,4 C 7,8 C 0,0 km/h (0 Bft)
19.11.2014 16:35 4,3 C 93 % 1021,6 hPa 0,0 l/m 0,0 km/h (0 Bft) SO 135 3,3 C 7,8 C 0,0 km/h (0 Bft)
19.11.2014 16:40 4,2 C 93 % 1021,6 hPa 0,0 l/m 0,0 km/h (0 Bft) SO 135 3,2 C 7,8 C 0,0 km/h (0 Bft)
19.11.2014 16:45 4,2 C 93 % 1021,6 hPa 0,0 l/m 0,0 km/h (0 Bft) SO 135 3,2 C 7,8 C 0,0 km/h (0 Bft)
19.11.2014 16:50 4,2 C 93 % 1021,6 hPa 0,0 l/m 0,0 km/h (0 Bft) SO 135 3,2 C 7,8 C 0,0 km/h (0 Bft)
19.11.2014 16:55 4,2 C 93 % 1021,6 hPa 0,0 l/m 0,0 km/h (0 Bft) SO 135 3,2 C 7,8 C 0,0 km/h (0 Bft)
19.11.2014 17:00 4,1 C 93 % 1021,6 hPa 0,0 l/m 0,0 km/h (0 Bft) SO 135 3,1 C 7,8 C 0,0 km/h (0 Bft)
19.11.2014 17:05 4,1 C 94 % 1021,6 hPa 0,0 l/m 0,0 km/h (0 Bft) SO 135 3,2 C 7,8 C 0,0 km/h (0 Bft)
19.11.2014 17:10 4,1 C 94 % 1021,6 hPa 0,0 l/m 0,0 km/h (0 Bft) SO 135 3,2 C 7,8 C 0,0 km/h (0 Bft)
19.11.2014 17:15 4,0 C 94 % 1021,6 hPa 0,0 l/m 0,0 km/h (0 Bft) SO 135 3,1 C 7,8 C 0,0 km/h (0 Bft)
19.11.2014 17:20 4,0 C 94 % 1021,8 hPa 0,0 l/m 0,0 km/h (0 Bft) SO 135 3,1 C 7,8 C 0,0 km/h (0 Bft)
19.11.2014 17:25 3,8 C 94 % 1021,8 hPa 0,0 l/m 0,0 km/h (0 Bft) SO 135 2,9 C 7,8 C 0,0 km/h (0 Bft)
19.11.2014 17:30 3,9 C 94 % 1021,8 hPa 0,0 l/m 0,0 km/h (0 Bft) SO 135 3,0 C 7,8 C 0,0 km/h (0 Bft)
19.11.2014 17:35 3,9 C 94 % 1021,8 hPa 0,0 l/m 0,0 km/h (0 Bft) SO 135 3,0 C 7,8 C 0,0 km/h (0 Bft)
19.11.2014 17:40 3,9 C 95 % 1022,1 hPa 0,0 l/m 0,0 km/h (0 Bft) SO 135 3,2 C 7,8 C 0,0 km/h (0 Bft)
19.11.2014 17:45 3,9 C 95 % 1022,1 hPa 0,0 l/m 0,0 km/h (0 Bft) SO 135 3,2 C 7,8 C 0,0 km/h (0 Bft)
19.11.2014 17:50 3,9 C 95 % 1022,1 hPa 0,0 l/m 0,0 km/h (0 Bft) SO 135 3,2 C 7,8 C 0,0 km/h (0 Bft)
19.11.2014 17:55 3,8 C 95 % 1022,1 hPa 0,0 l/m 0,0 km/h (0 Bft) SO 135 3,1 C 7,8 C 0,0 km/h (0 Bft)
19.11.2014 18:00 3,7 C 95 % 1022,1 hPa 0,0 l/m 0,0 km/h (0 Bft) SO 135 3,0 C 7,8 C 0,0 km/h (0 Bft)
19.11.2014 18:03 3,7 C 95 % 1022,1 hPa 0,0 l/m 0,0 km/h (0 Bft) SO 135 3,0 C 7,8 C 0,0 km/h (0 Bft)
19.11.2014 18:10 3,7 C 95 % 1022,1 hPa 0,0 l/m 0,0 km/h (0 Bft) SO 135 3,0 C 7,8 C 0,0 km/h (0 Bft)
19.11.2014 18:15 3,6 C 95 % 1022,2 hPa 0,0 l/m 0,0 km/h (0 Bft) SO 135 2,9 C 7,8 C 0,0 km/h (0 Bft)
19.11.2014 18:20 3,7 C 95 % 1022,2 hPa 0,0 l/m 0,0 km/h (0 Bft) SO 135 3,0 C 7,8 C 0,0 km/h (0 Bft)
19.11.2014 18:25 3,5 C 95 % 1022,2 hPa 0,0 l/m 0,0 km/h (0 Bft) SO 135 2,8 C 7,8 C 0,0 km/h (0 Bft)
19.11.2014 18:30 3,5 C 95 % 1022,2 hPa 0,0 l/m 0,0 km/h (0 Bft) SO 135 2,8 C 7,8 C 0,0 km/h (0 Bft)
19.11.2014 18:35 3,4 C 95 % 1022,3 hPa 0,0 l/m 0,0 km/h (0 Bft) SO 135 2,7 C 7,8 C 0,0 km/h (0 Bft)
19.11.2014 18:40 3,3 C 95 % 1022,3 hPa 0,0 l/m 0,0 km/h (0 Bft) SO 135 2,6 C 7,8 C 0,0 km/h (0 Bft)
19.11.2014 18:45 3,3 C 95 % 1022,3 hPa 0,0 l/m 0,0 km/h (0 Bft) SO 135 2,6 C 7,8 C 0,0 km/h (0 Bft)
19.11.2014 18:50 3,1 C 95 % 1022,3 hPa 0,0 l/m 0,0 km/h (0 Bft) SO 135 2,4 C 7,8 C 0,0 km/h (0 Bft)
19.11.2014 18:55 3,1 C 95 % 1023,1 hPa 0,0 l/m 0,0 km/h (0 Bft) SO 135 2,4 C 7,8 C 0,0 km/h (0 Bft)
19.11.2014 19:00 3,1 C 95 % 1023,1 hPa 0,0 l/m 0,0 km/h (0 Bft) SO 135 2,4 C 7,8 C 0,0 km/h (0 Bft)
19.11.2014 19:05 3,0 C 95 % 1023,1 hPa 0,0 l/m 0,0 km/h (0 Bft) SO 135 2,3 C 7,8 C 0,0 km/h (0 Bft)
19.11.2014 19:10 2,8 C 96 % 1023,1 hPa 0,0 l/m 0,0 km/h (0 Bft) SO 135 2,2 C 7,8 C 0,0 km/h (0 Bft)
19.11.2014 19:15 2,3 C 96 % 1022,9 hPa 0,0 l/m 0,0 km/h (0 Bft) SO 135 1,7 C 7,8 C 0,0 km/h (0 Bft)
19.11.2014 19:20 2,2 C 96 % 1022,9 hPa 0,0 l/m 0,0 km/h (0 Bft) SO 135 1,6 C 7,8 C 0,0 km/h (0 Bft)
19.11.2014 19:25 2,2 C 96 % 1022,9 hPa 0,0 l/m 0,0 km/h (0 Bft) SO 135 1,6 C 7,8 C 0,0 km/h (0 Bft)
19.11.2014 19:30 1,9 C 96 % 1022,9 hPa 0,0 l/m 0,0 km/h (0 Bft) SO 135 1,3 C 7,8 C 0,0 km/h (0 Bft)
19.11.2014 19:35 1,5 C 96 % 1023,0 hPa 0,0 l/m 0,0 km/h (0 Bft) SO 135 0,9 C 7,8 C 0,0 km/h (0 Bft)
19.11.2014 19:40 1,5 C 96 % 1023,0 hPa 0,0 l/m 0,0 km/h (0 Bft) SO 135 0,9 C 7,8 C 0,0 km/h (0 Bft)
19.11.2014 19:45 1,6 C 96 % 1023,0 hPa 0,0 l/m 0,0 km/h (0 Bft) SO 135 1,0 C 7,8 C 0,0 km/h (0 Bft)
19.11.2014 19:50 2,0 C 96 % 1023,0 hPa 0,0 l/m 0,0 km/h (0 Bft) SO 135 1,4 C 7,8 C 0,0 km/h (0 Bft)
19.11.2014 19:55 2,1 C 96 % 1023,0 hPa 0,0 l/m 0,0 km/h (0 Bft) SO 135 1,5 C 7,8 C 0,0 km/h (0 Bft)
19.11.2014 20:00 1,8 C 96 % 1023,4 hPa 0,0 l/m 0,0 km/h (0 Bft) SO 135 1,2 C 7,8 C 0,0 km/h (0 Bft)
19.11.2014 20:05 1,7 C 96 % 1023,4 hPa 0,0 l/m 0,0 km/h (0 Bft) SO 135 1,1 C 7,8 C 0,0 km/h (0 Bft)
19.11.2014 20:10 1,6 C 96 % 1023,4 hPa 0,0 l/m 0,0 km/h (0 Bft) SO 135 1,0 C 7,8 C 0,0 km/h (0 Bft)
19.11.2014 20:15 1,6 C 96 % 1023,4 hPa 0,0 l/m 0,0 km/h (0 Bft) SO 135 1,0 C 7,8 C 0,0 km/h (0 Bft)
19.11.2014 20:20 1,5 C 96 % 1023,6 hPa 0,0 l/m 0,0 km/h (0 Bft) SO 135 0,9 C 7,8 C 0,0 km/h (0 Bft)
19.11.2014 20:25 1,5 C 96 % 1023,6 hPa 0,0 l/m 0,0 km/h (0 Bft) SO 135 0,9 C 7,8 C 0,0 km/h (0 Bft)
19.11.2014 20:30 1,5 C 96 % 1023,6 hPa 0,0 l/m 0,0 km/h (0 Bft) SO 135 0,9 C 7,8 C 0,0 km/h (0 Bft)
19.11.2014 20:35 0,9 C 96 % 1023,6 hPa 0,0 l/m 0,0 km/h (0 Bft) SO 135 0,3 C 7,8 C 0,0 km/h (0 Bft)
19.11.2014 20:40 0,7 C 96 % 1023,4 hPa 0,0 l/m 0,0 km/h (0 Bft) SO 135 0,1 C 7,8 C 0,0 km/h (0 Bft)
19.11.2014 20:45 0,9 C 96 % 1023,4 hPa 0,0 l/m 0,0 km/h (0 Bft) SO 135 0,3 C 7,8 C 0,0 km/h (0 Bft)
19.11.2014 20:50 0,7 C 96 % 1023,4 hPa 0,0 l/m 0,0 km/h (0 Bft) SO 135 0,1 C 7,8 C 0,0 km/h (0 Bft)
19.11.2014 20:55 0,5 C 96 % 1023,4 hPa 0,0 l/m 0,0 km/h (0 Bft) SO 135 -0,1 C 7,8 C 0,0 km/h (0 Bft)
19.11.2014 21:00 0,5 C 96 % 1023,6 hPa 0,0 l/m 0,0 km/h (0 Bft) SO 135 -0,1 C 7,8 C 0,0 km/h (0 Bft)
19.11.2014 21:03 0,4 C 96 % 1023,6 hPa 0,0 l/m 0,0 km/h (0 Bft) SO 135 -0,2 C 7,8 C 0,0 km/h (0 Bft)
19.11.2014 21:10 0,3 C 96 % 1023,6 hPa 0,0 l/m 0,0 km/h (0 Bft) SO 135 -0,3 C 7,8 C 0,0 km/h (0 Bft)
19.11.2014 21:15 0,4 C 96 % 1023,6 hPa 0,0 l/m 0,0 km/h (0 Bft) SO 135 -0,2 C 7,8 C 0,0 km/h (0 Bft)
19.11.2014 21:20 0,6 C 96 % 1023,6 hPa 0,0 l/m 0,0 km/h (0 Bft) SO 135 0,0 C 7,8 C 0,0 km/h (0 Bft)
19.11.2014 21:25 0,4 C 96 % 1023,6 hPa 0,0 l/m 0,0 km/h (0 Bft) SO 135 -0,2 C 7,8 C 0,0 km/h (0 Bft)
19.11.2014 21:30 0,4 C 97 % 1023,6 hPa 0,0 l/m 0,0 km/h (0 Bft) SO 135 -0,0 C 7,8 C 0,0 km/h (0 Bft)
19.11.2014 21:35 0,4 C 97 % 1023,6 hPa 0,0 l/m 0,0 km/h (0 Bft) SO 135 -0,0 C 7,8 C 0,0 km/h (0 Bft)
19.11.2014 21:40 0,3 C 97 % 1023,6 hPa 0,0 l/m 0,0 km/h (0 Bft) SO 135 -0,1 C 7,8 C 0,0 km/h (0 Bft)
19.11.2014 21:45 0,4 C 97 % 1023,6 hPa 0,0 l/m 0,0 km/h (0 Bft) SO 135 -0,0 C 7,8 C 0,0 km/h (0 Bft)
19.11.2014 21:50 0,2 C 97 % 1023,6 hPa 0,0 l/m 0,0 km/h (0 Bft) SO 135 -0,2 C 7,8 C 0,0 km/h (0 Bft)
19.11.2014 21:55 0,0 C 97 % 1023,6 hPa 0,0 l/m 0,0 km/h (0 Bft) SO 135 -0,4 C 7,8 C 0,0 km/h (0 Bft)
19.11.2014 22:00 -0,3 C 96 % 1023,6 hPa 0,0 l/m 0,0 km/h (0 Bft) SO 135 -0,9 C 7,8 C 0,0 km/h (0 Bft)
19.11.2014 22:05 0,0 C 97 % 1023,6 hPa 0,0 l/m 0,0 km/h (0 Bft) SO 135 -0,4 C 7,8 C 0,0 km/h (0 Bft)
19.11.2014 22:10 0,2 C 97 % 1023,6 hPa 0,0 l/m 0,0 km/h (0 Bft) SO 135 -0,2 C 7,8 C 0,0 km/h (0 Bft)
19.11.2014 22:15 0,0 C 97 % 1023,6 hPa 0,0 l/m 0,0 km/h (0 Bft) SO 135 -0,4 C 7,8 C 0,0 km/h (0 Bft)
19.11.2014 22:20 -0,2 C 96 % 1023,6 hPa 0,0 l/m 0,0 km/h (0 Bft) SO 135 -0,8 C 7,8 C 0,0 km/h (0 Bft)
19.11.2014 22:25 0,0 C 97 % 1023,6 hPa 0,0 l/m 0,0 km/h (0 Bft) SO 135 -0,4 C 7,8 C 0,0 km/h (0 Bft)
19.11.2014 22:30 -0,3 C 97 % 1023,6 hPa 0,0 l/m 0,0 km/h (0 Bft) SO 135 -0,7 C 7,8 C 0,0 km/h (0 Bft)
19.11.2014 22:35 -0,1 C 97 % 1023,9 hPa 0,0 l/m 0,0 km/h (0 Bft) SO 135 -0,5 C 7,8 C 0,0 km/h (0 Bft)
19.11.2014 22:40 -0,2 C 97 % 1023,9 hPa 0,0 l/m 0,0 km/h (0 Bft) SO 135 -0,6 C 7,8 C 0,0 km/h (0 Bft)
19.11.2014 22:45 -0,2 C 97 % 1023,9 hPa 0,0 l/m 0,0 km/h (0 Bft) SO 135 -0,6 C 7,8 C 0,0 km/h (0 Bft)
19.11.2014 22:50 -0,4 C 97 % 1023,9 hPa 0,0 l/m 0,0 km/h (0 Bft) SO 135 -0,8 C 7,8 C 0,0 km/h (0 Bft)
19.11.2014 22:55 -0,3 C 97 % 1023,9 hPa 0,0 l/m 0,0 km/h (0 Bft) SO 135 -0,7 C 7,8 C 0,0 km/h (0 Bft)
19.11.2014 23:00 -0,4 C 97 % 1023,9 hPa 0,0 l/m 0,0 km/h (0 Bft) SO 135 -0,8 C 7,8 C 0,0 km/h (0 Bft)
19.11.2014 23:05 -0,6 C 96 % 1023,9 hPa 0,0 l/m 0,0 km/h (0 Bft) SO 135 -1,2 C 7,8 C 0,0 km/h (0 Bft)
19.11.2014 23:10 -0,7 C 96 % 1023,9 hPa 0,0 l/m 0,0 km/h (0 Bft) SO 135 -1,3 C 7,8 C 0,0 km/h (0 Bft)
19.11.2014 23:15 -0,4 C 97 % 1023,9 hPa 0,0 l/m 0,0 km/h (0 Bft) SO 135 -0,8 C 7,8 C 0,0 km/h (0 Bft)
19.11.2014 23:20 -0,2 C 97 % 1023,9 hPa 0,0 l/m 0,0 km/h (0 Bft) SO 135 -0,6 C 7,8 C 0,0 km/h (0 Bft)
19.11.2014 23:25 -0,5 C 97 % 1023,9 hPa 0,0 l/m 0,0 km/h (0 Bft) SO 135 -0,9 C 7,8 C 0,0 km/h (0 Bft)
19.11.2014 23:30 -0,5 C 97 % 1023,9 hPa 0,0 l/m 0,0 km/h (0 Bft) SO 135 -0,9 C 7,8 C 0,0 km/h (0 Bft)
19.11.2014 23:35 -0,5 C 97 % 1023,9 hPa 0,0 l/m 0,0 km/h (0 Bft) SO 135 -0,9 C 7,8 C 0,0 km/h (0 Bft)
19.11.2014 23:40 -0,5 C 97 % 1024,1 hPa 0,0 l/m 0,0 km/h (0 Bft) SO 135 -0,9 C 7,8 C 0,0 km/h (0 Bft)
19.11.2014 23:45 -0,4 C 97 % 1024,1 hPa 0,0 l/m 0,0 km/h (0 Bft) SO 135 -0,8 C 7,8 C 0,0 km/h (0 Bft)
19.11.2014 23:50 -0,5 C 97 % 1024,1 hPa 0,0 l/m 0,0 km/h (0 Bft) SO 135 -0,9 C 7,8 C 0,0 km/h (0 Bft)
19.11.2014 23:55 -0,6 C 97 % 1024,1 hPa 0,0 l/m 0,0 km/h (0 Bft) SO 135 -1,0 C 7,8 C 0,0 km/h (0 Bft)
_ Min-Zeit 23:10 14:15 00:10 - 23:55 - - 23:10 23:55 23:55
Minimum _ -0,7 C 90 % 1012,2 hPa - 0,0 km/h (0 Bft) - - -1,3 C 7,8 C 0,0 km/h (0 Bft)
_ Max-Zeit 14:10 23:55 23:55 23:55 23:55 - - 14:05 23:55 23:55
Maximum _ 6,1 C 97 % 1024,1 hPa 0,0 l/m 0,0 km/h
SO (0 Bft)
- - 4,7 C 7,8 C 0,0 km/h
SO (0 Bft)
Durchschnitt _ 3,4 C 95 % 1018,4 hPa #0,0 l/m 0,0 km/h (0 Bft) - - - 2,6 C 7,8 C 0,0 km/h (0 Bft)